Regional Weather Roundup
Issued by NWS

Home | Current Version | Previous Version | Graphics & Text | Print | Product List | Glossary On
Versions: 1 2 3 4 5 6 7 8 9 10 11 12 13 14 15 16 17 18 19 20 21 22 23 24 25 26 27 28 29 30 31 32 33 34 35 36 37 38 39 40 41 42 43 44 45 46 47 48 49 50
000
ASUS45 KPSR 310210
RWRAZ

ARIZONA HOURLY REGIONAL WEATHER ROUNDUP
NATIONAL WEATHER SERVICE PHOENIX AZ
700 PM MST MON MAY 30 2016

NOTE: FAIR INDICATES FEW OR NO CLOUDS BELOW 12,000 FEET WITH NO
SIGNIFICANT WEATHER AND/OR OBSTRUCTIONS TO VISIBILITY.

AZZ001>003-036-310300-
NORTHWEST ARIZONA

CITY           SKY/WX    TMP DP  RH WIND       PRES   REMARKS
KINGMAN        MOCLDY    82  25  12 E10       29.91F
$$

AZZ004>008-015-016-018-310300-
NORTH CENTRAL ARIZONA

CITY           SKY/WX    TMP DP  RH WIND       PRES   REMARKS
GRAND CANYON   MOCLDY    64  30  27 CALM      30.11R
WILLIAMS       MOCLDY    63  27  25 N6        30.18S
PRESCOTT       PTCLDY    75  14  10 W8        30.00R
FLAGSTAFF      PTCLDY    62  26  25 NW6       30.11F
PAYSON         CLEAR     73  10   9 SW8       30.03R
PAGE           CLOUDY    81  27  14 E6        29.93S
$$

AZZ009>014-017-310300-
NORTHEAST ARIZONA

CITY           SKY/WX    TMP DP  RH WIND       PRES   REMARKS
WINSLOW        PTCLDY    76  20  12 W6        29.95S
SAINT JOHNS    PTCLDY    75  24  15 N9        29.99R
WINDOW ROCK    PTCLDY    70  19  14 SW7       30.05S
SHOW LOW       CLEAR     66  16  14 SW8       30.07S
$$

AZZ023-310300-
GREATER PHOENIX AREA

CITY           SKY/WX    TMP DP  RH WIND       PRES   REMARKS
PHOENIX        PTCLDY    91  19   7 W7        29.75S
BUCKEYE        CLEAR     90  27  10 SE5       29.77S
LUKE AFB       CLEAR     90  19   7 SW10      29.75S
DEER VALLEY    CLEAR     87  18   8 W8        29.78S
SCOTTSDALE     CLEAR     89  17   7 SW8       29.79S
MESA-FALCON    PTCLDY   N/A N/A N/A W8        29.76R
MESA-GATEWAY   CLEAR     90  18   7 W8        29.78S
CHANDLER       CLEAR     90  19   7 VRB6      29.77S
$$

AZZ027-028-310300-
SOUTHWEST MARICOPA COUNTY AND PINAL COUNTY

CITY           SKY/WX    TMP DP  RH WIND       PRES   REMARKS
CASA GRANDE    CLEAR     90  27  10 W12       29.79S
GILA BEND      FAIR      91  18   7 NW3       29.75S
$$

AZZ503-504-507>509-310300-
SOUTHEAST ARIZONA

CITY           SKY/WX    TMP DP  RH WIND       PRES   REMARKS
TUCSON         CLEAR     88  14   6 W12       29.84S
DAVIS-MONTHAN  CLEAR     87  14   6 W7        29.83R
RYAN FIELD     CLEAR     88  14   6 SW12      29.83S
NOGALES        CLEAR     81  25  12 W14G20    29.91S
SIERRA VISTA   CLEAR     78  22  12 SW13      29.97R
DOUGLAS        CLEAR     81  33  17 SW18G26   29.92R
SAFFORD        CLEAR     87  19   8 NW13G22   29.81R
$$

AZZ020-021-025-026-031-310300-
SOUTHWEST ARIZONA

CITY           SKY/WX    TMP DP  RH WIND       PRES   REMARKS
YUMA           CLEAR     93  38  14 W8        29.74S
$$

CAZ031-033-041-043-047-048-061-310300-
SOUTHERN CALIFORNIA

CITY           SKY/WX    TMP DP  RH WIND       PRES   REMARKS
DOWNTOWN L.A.  SUNNY     66  55  67 VRB5      29.91R
L.A. AIRPORT   MOSUNNY   62  55  77 W13       29.92S
SAN DIEGO      MOCLDY    68  56  65 NW10      29.93S
BURBANK        SUNNY     67  54  63 S8        29.89S
ONTARIO        PTCLDY    73  54  51 SW13      29.89R
RIVERSIDE      CLEAR     74  53  48 W10       29.89R
PALM SPRINGS   PTCLDY    95  48  20 NW14      29.75S
EL CENTRO NAS  PTCLDY    94  33  11 SE6       29.73F
IMPERIAL       PTCLDY    94  35  12 W3        29.71F
BLYTHE         PTCLDY    95  30  10 SE6       29.73S
NEEDLES        PTCLDY    97  24   7 SE12      29.72F
$$

NVZ020-UTZ003-310300-
SOUTHERN NEVADA-UTAH

CITY           SKY/WX    TMP DP  RH WIND       PRES   REMARKS
LAS VEGAS      MOCLDY    93  28  10 E7        29.76F
SALT LAKE CITY MOCLDY    75  34  22 N10       30.02F
$$

NMZ009-TXZ055-310300-
NEW MEXICO-WEST TEXAS

CITY           SKY/WX    TMP DP  RH WIND       PRES   REMARKS
ALBUQUERQUE    CLOUDY    79  28  15 SW9       29.96R
EL PASO        MOCLDY    80  43  26 SE8       29.92R
$$


........................KEY........................
SKY/WX - SKY CONDITION/WEATHER
TMP    - TEMPERATURE IN FAHRENHEIT
DP     - DEW POINT IN FAHRENHEIT
RH     - RELATIVE HUMIDITY IN PERCENT
WIND   - DIRECTION AND SPEED IN MILES PER HOUR (MPH)
VRB    - VARIABLE WIND DIRECTION
PRES   - MEAN SEA LEVEL PRESSURE IN INCHES OF MERCURY
         F - FALLING PRESSURE   R - RISING PRESSURE
         S - STEADY PRESSURE
VSB    - VISIBILITY IN MILES
HX     - HEAT INDEX IN FAHRENHEIT
WCI    - WIND CHILL INDEX IN FAHRENHEIT
TC     - TEMPERATURE IN CELSIUS WHICH IS ALSO KNOWN AS
         TEMPERATURE IN CENTIGRADE
AFB    - AIR FORCE BASE
         LUKE AFB IS LUKE AIR FORCE BASE
         DAVIS-MONTHAN IS DAVIS-MONTHAN AIR FORCE BASE
NAS    - NAVAL AIR STATION
         EL CENTRO NAS IS EL CENTRO NAVAL AIR STATION
N/A    - NOT AVAILABLE




USA.gov is the U.S. government's official web portal to all federal, state and local government web resources and services.